Miscellaneous Local Product
Issued by NWS North Platte, NE

Home | Current Version | Previous Version | Text Only | Print | Product List | Glossary On
Versions: 1 2 3 4 5 6 7 8 9 10 11 12 13 14 15 16 17 18 19 20 21 22 23 24 25 26 27 28 29 30 31 32 33 34 35 36 37 38 39 40 41 42 43 44 45 46 47 48 49 50
000
AXUS43 KLBF 271510
MISLBF


WESTERN AND NORTH CENTRAL NEBRASKA HOURLY WEATHER ROUNDUP
NATIONAL WEATHER SERVICE NORTH PLATTE NE
1000 AM CDT WED MAY 27 2015

***STATIONS NOT REPORTING VARIABLES SUCH AS SKY/WEATHER OR
PRESSURE ARE PROVIDED BY THE NEBRASKA DEPARTMENT OF
ROADS...RAWS...AND APRS NETWORKS...AND ARE NOT UNDER
NATIONAL WEATHER SERVICE QUALITY CONTROL***

...OBSERVATIONS IN AND NEAR THE EASTERN PANHANDLE OF NEBRASKA...

CITY           SKY/WX    TMP DP  RH WIND       PRES   REMARKS
PINE RIDGE     CLOUDY    58  53  84 SE9       30.03S
CHADRON        MOSUNNY   63  54  72 S10       30.01F
ALLIANCE       CLOUDY    60  51  72 S20       30.05S
SIDNEY         CLOUDY    55  52  89 S12       30.09R
WHITECLAY        N/A     62  53  72 S14         N/A
BIG SPRINGS      N/A     64  54  69 SE16        N/A
$$

...OBSERVATIONS IN NORTH CENTRAL NEBRASKA...

CITY           SKY/WX    TMP DP  RH WIND       PRES   REMARKS
VALENTINE      PTSUNNY   66  51  58 SW9       30.06F
THEDFORD       PTSUNNY   67  51  54 S9        30.08F
AINSWORTH      MOSUNNY   70  51  51 SW8       30.08S
O`NEILL        SUNNY     71  55  55 CALM      30.07S
ORD            SUNNY     69  56  62 VRB3      30.07S
BROKEN BOW     MOSUNNY   68  51  54 SW6       30.09S
BROWNLEE         N/A     66  48  53 SW5         N/A
VALENTINE NWR    N/A     64  50  61 SW8G16      N/A
SPRINGVIEW       N/A     69  57  65 CALM        N/A
HALSEY           N/A     66  49  54 S6          N/A
BREWSTER         N/A     73  54  49 S9          N/A
ROSE             N/A     72  55  54 SE5         N/A
NEWPORT          N/A     73  55  53 W6          N/A
SARGENT          N/A     69  55  62 CALM        N/A
COMSTOCK         N/A     74  59  57 W7          N/A
EWING            N/A     70  58  64 W3          N/A
$$

...OBSERVATIONS IN SOUTHWEST NEBRASKA AND FAR NORTHEAST COLORADO...

CITY           SKY/WX    TMP DP  RH WIND       PRES   REMARKS
WRAY           CLOUDY    61  53  74 SE10      30.09S
HOLYOKE        FAIR      61  52  72 SE14      30.09S
IMPERIAL       CLOUDY    62  50  64 MISG      30.10R
OGALLALA       PTSUNNY   65  52  61 S10       30.09S
NORTH PLATTE   PTSUNNY   64  53  67 SE5       30.10R
MCCOOK         PTSUNNY   66  50  56 SE10      30.09S
LEXINGTON      MOSUNNY   68  54  60 S9        30.10R
PAXTON           N/A     64  56  75 SE14        N/A
GOTHENBURG       N/A     66  50  57 S6          N/A
CALLAWAY         N/A     69  54  58 S14         N/A
$$

...NORTH PLATTE AREA...

CITY           SKY/WX    TMP DP  RH WIND       PRES   REMARKS
AIRPORT        PTSUNNY   64  53  67 SE5       30.10R
DOWNTOWN         N/A     66  52  60 SE6G13      N/A
$$

...SOME WEATHER OBSERVATIONS FROM AROUND THE REGION...

CITY           SKY/WX    TMP DP  RH WIND       PRES   REMARKS
DENVER         MOSUNNY   62  45  53 SW6       30.09R
LARAMIE        CLOUDY    51  38  60 W13       30.15R
CHEYENNE       SUNNY     62  43  49 W7        30.10S
SCOTTSBLUFF    PTSUNNY   60  53  77 SE9       30.04S
RAPID CITY     CLOUDY    60  54  80 S9        30.00S
PIERRE         SUNNY     68  51  54 SW7       29.99S
WINNER         FAIR      73  50  44 SW12      30.04R
SIOUX FALLS    MOSUNNY   73  53  49 NW10      30.00S
OMAHA          SUNNY     69  56  62 CALM      30.06R
GRAND ISLAND   SUNNY     70  52  52 SW8       30.10R
KANSAS CITY    MOSUNNY   73  58  59 N7        30.08S
WICHITA        PTSUNNY   71  62  73 SE9       30.08R
HAYS           PTSUNNY   66  52  59 E7        30.09R
LIBERAL        SUNNY     73  63  68 S12       30.09S
GOODLAND       CLOUDY    57  53  86 SE15      30.09S
$$



USA.gov is the U.S. government's official web portal to all federal, state and local government web resources and services.